Regional Weather Roundup
Issued by NWS

Home | Current Version | Previous Version | Text Only | Print | Product List | Glossary Off
Versions: 1 2 3 4 5 6 7 8 9 10 11 12 13 14 15 16 17 18 19 20 21 22 23 24 25 26 27 28 29 30 31 32 33 34 35 36 37 38 39 40 41 42 43 44 45 46 47 48 49 50

000
ASUS45 KPSR 181510
RWRAZ

ARIZONA HOURLY REGIONAL WEATHER ROUNDUP
NATIONAL WEATHER SERVICE PHOENIX AZ
800 AM MST FRI AUG 18 2017

NOTE: FAIR INDICATES FEW OR NO CLOUDS BELOW 12,000 FEET WITH NO
SIGNIFICANT WEATHER AND/OR OBSTRUCTIONS TO VISIBILITY.

AZZ001>003-036-181600-
NORTHWEST ARIZONA

CITY           SKY/WX    TMP DP  RH WIND       PRES   REMARKS
BULLHEAD CITY  SUNNY     82  39  21 CALM      29.92S
KINGMAN        SUNNY     81  38  21 CALM      30.12R
$$

AZZ004>008-015-016-018-181600-
NORTH CENTRAL ARIZONA

CITY           SKY/WX    TMP DP  RH WIND       PRES   REMARKS
GRAND CANYON   SUNNY     66  41  40 CALM      30.35
WILLIAMS       SUNNY     64  45  48 SE3       30.35S
PRESCOTT       SUNNY     69  45  41 CALM      30.25
FLAGSTAFF      SUNNY     64  40  41 CALM      30.37
PAYSON           N/A     70  32  24 CALM      30.26S
PAGE           SUNNY     77  39  25 N3        30.16
$$

AZZ009>014-017-181600-
NORTHEAST ARIZONA

CITY           SKY/WX    TMP DP  RH WIND       PRES   REMARKS
WINSLOW        SUNNY     68  35  29 E5        30.24
SAINT JOHNS    SUNNY     68  42  38 VRB3      30.29
WINDOW ROCK    SUNNY     61  31  32 CALM      30.36
SHOW LOW       SUNNY     72  36  26 S5        30.35S
$$

AZZ540-542>544-546-548-181600-
GREATER PHOENIX AREA

CITY           SKY/WX    TMP DP  RH WIND       PRES   REMARKS
PHOENIX        MOSUNNY   85  39  19 SE6       29.95R
BUCKEYE        SUNNY     82  41  23 CALM      29.96R
GLENDALE       MOSUNNY   84  43  23 CALM      29.98F
LUKE AFB       SUNNY     83  46  27 N5        29.96
DEER VALLEY    SUNNY     84  34  16 CALM      29.98
SCOTTSDALE     SUNNY     81  41  24 W3        29.99
MESA-FALCON    SUNNY     82  37  20 N8        29.99R
MESA-GATEWAY   SUNNY     79  45  29 E7        29.99R
CHANDLER       SUNNY     79  52  38 NE7       29.97R
$$

AZZ539-553-181600-
SOUTHWEST MARICOPA COUNTY AND PINAL COUNTY

CITY           SKY/WX    TMP DP  RH WIND       PRES   REMARKS
CASA GRANDE    SUNNY     80  50  34 CALM      30.00
GILA BEND      SUNNY     87  49  26 CALM      29.93R
$$

AZZ503-504-507>509-181600-
SOUTHEAST ARIZONA

CITY           SKY/WX    TMP DP  RH WIND       PRES   REMARKS
TUCSON         NOT AVBL
DAVIS-MONTHAN  SUNNY     78  44  30 SE7       30.07
RYAN FIELD     SUNNY     75  46  35 E5        30.07S
NOGALES        MOSUNNY   70  50  49 CALM      30.16
SIERRA VISTA   MOSUNNY   80  35  19 W7        30.22R
DOUGLAS        MOSUNNY   72  47  40 CALM      30.17
SAFFORD        SUNNY     73  43  33 S3        30.10R
$$

AZZ532-181600-
SOUTHWEST ARIZONA

CITY           SKY/WX    TMP DP  RH WIND       PRES   REMARKS
YUMA           SUNNY     85  61  44 CALM      29.88R
$$

CAZ041-043-047-048-061-525>527-560>570-181600-
SOUTHERN CALIFORNIA

CITY           SKY/WX    TMP DP  RH WIND       PRES   REMARKS
DOWNTOWN L.A.  MOSUNNY   68  62  81 CALM      30.00S
L.A. AIRPORT   MOSUNNY   68  63  84 W5        30.01R
SAN DIEGO      PTSUNNY   70  60  70 NE6       30.02R
BURBANK        SUNNY     66  58  75 CALM      30.01
ONTARIO        SUNNY     67  60  78 VRB3      30.01
RIVERSIDE      SUNNY     66  62  87 W5        30.01
PALM SPRINGS   SUNNY     84  55  36 VRB3      29.91
EL CENTRO NAS  SUNNY     83  57  41 CALM      29.88R
IMPERIAL       SUNNY     86  60  41 CALM      29.86
BLYTHE         SUNNY     88  47  24 N3        29.89R
NEEDLES        SUNNY     88  37  16 CALM      29.93
$$

NVZ020-UTZ003-181600-
SOUTHERN NEVADA-UTAH

CITY           SKY/WX    TMP DP  RH WIND       PRES   REMARKS
LAS VEGAS      MOSUNNY   87  42  20 CALM      30.01
SALT LAKE CITY SUNNY     75  45  34 SE8       30.16
$$

NMZ009-TXZ055-181600-
NEW MEXICO-WEST TEXAS

CITY           SKY/WX    TMP DP  RH WIND       PRES   REMARKS
ALBUQUERQUE    MOSUNNY   70  42  36 NW6       30.26
EL PASO        MOSUNNY   77  61  57 S7        30.14R
$$


........................KEY........................
SKY/WX - SKY CONDITION/WEATHER
TMP    - TEMPERATURE IN FAHRENHEIT
DP     - DEW POINT IN FAHRENHEIT
RH     - RELATIVE HUMIDITY IN PERCENT
WIND   - DIRECTION AND SPEED IN MILES PER HOUR (MPH)
VRB    - VARIABLE WIND DIRECTION
PRES   - MEAN SEA LEVEL PRESSURE IN INCHES OF MERCURY
         F - FALLING PRESSURE   R - RISING PRESSURE
         S - STEADY PRESSURE
VSB    - VISIBILITY IN MILES
HX     - HEAT INDEX IN FAHRENHEIT
WCI    - WIND CHILL INDEX IN FAHRENHEIT
TC     - TEMPERATURE IN CELSIUS WHICH IS ALSO KNOWN AS
         TEMPERATURE IN CENTIGRADE
AFB    - AIR FORCE BASE
         LUKE AFB IS LUKE AIR FORCE BASE
         DAVIS-MONTHAN IS DAVIS-MONTHAN AIR FORCE BASE
NAS    - NAVAL AIR STATION
         EL CENTRO NAS IS EL CENTRO NAVAL AIR STATION
N/A    - NOT AVAILABLE




USA.gov is the U.S. government's official web portal to all federal, state and local government web resources and services.